STARLINK-1665, 46356

Orbit data source: Space-Track

STARLINK-1665, 46356 is a payload satellite owned by SpaceX/Seattle (US) in LEO that was launched on Thu, 03 Sep 2020 UTC via an FALCON 9 launch vehicle from the Air Force Eastern Test Range (AFETR). Payload-class satellites include a variety of spacecraft equipped with specific instruments for various scientific and technological missions. These include communications satellites like Starlink; space stations such as the ISS; scientific satellites like the Hubble; Earth observation satellites from companies like Planet Labs, Umbra, and HawkEye 360; GPS; miniature CubeSats for education and research; and military/defense satellites.

Loading next visibility...
Identifier
46356, 2020-062AH
Orbit
LEO
Last TLE update
13 hours ago
Origin
Manufacturer
SpaceX/Seattle
Mission
Operational Commercial Communications
Bus & Motor
STARLINK, Unknown motor
Mass
260 kg wet, ~248 kg dry
Launch date (UTC)
2020-09-03 (5 years ago)
Launch vehicle
FALCON 9
Launch site
Air Force Eastern Test Range (AFETR)
Object type
Payload
Rocket body
Debris
Shape & HBR
Box + 1 Pan, 8.86 m
Radar Cross Section
13.562 m², Large (>1 m²)

Expand to show TLE details & history

TLE from 13 hours ago
0 STARLINK-1665
1 46356U 20062AH  25173.10998075 -.00000538  00000-0 -17213-4 0  9997
2 46356  53.0556 106.4423 0001531  92.5893 267.5271 15.06386998265217
Epoch: 2025-06-22T02:38Z
TLE epoch observation values (Epoch: 2025-06-22T02:38:22.336Z)
Latitude
-0.00006°
Longitude
156.30987°
Altitude
548.177 km
Speed
7.589 km/s
True Right ascension
07h 05m 46s
True Declination
0° 00' 00"
Sunlit
Object was in daylight at epoch
Visualization orbit readout
Latitude
-31.20302°
Longitude
127.02296°
Altitude
557.592 km
Speed
7.582 km/s
Apparent Right ascension
08h 47m 46s
Apparent Declination
-61° 45' 49"
Sunlit
Object is in daylight
Visualization observer readout
Local Sidereal Time
02:15:45
Azimuth
143.513° SSE
Elevation
-38.012°
Doppler factor
1
Orbital elements
Apogee altitude
548.582 km
Perigee altitude
546.462 km
Semi-major axis
6,925.659 km
Eccentricity
0.00015
Inclination
53.0556°
RAAN
106.4423°
Arg. of periapsis
92.5893°
True anomaly
Unknown
Mean anomaly
267.5271°
Eccentric anomaly
Unknown
Mean motion
3.76575 °/min
Orbital period
95.6 mins
BSTAR
-0.000017213
Loading maneuver chart data...
Loading SW <> Apogee altitude chart data...
Loading historical data...
Loading historical data...
Loading historical data...
Loading historical data...
Loading historical data...
Loading historical data...
Loading historical data...

STARLINK-1665 Visibility forecast

Observer location: undefined°, undefined°

Span
Click to sort rows by Start time (UTC) header in descending order
Start Az.
Max El. time (UTC)
Max El. Az.
Max El.
End time (UTC)
End Az.
7 mins2025-06-22 21:55:01.059Z210.537° SW2025-06-22 21:58:01.059Z140.316° SSE39.716°2025-06-22 22:02:01.059Z57.883° ENE
5 mins2025-06-22 23:36:01.059Z293.483° NW2025-06-22 23:38:01.059Z338.856° N24.314°2025-06-22 23:41:01.059Z30.318° NE
4 mins2025-06-23 02:58:01.059Z352.806° N2025-06-23 02:59:01.059Z10.18° NNE16.33°2025-06-23 03:02:01.059Z57.965° ENE
6 mins2025-06-23 04:37:01.059Z322.697° NNW2025-06-23 04:40:01.059Z64.738° ENE38.79°2025-06-23 04:43:01.059Z113.778° SE
4 mins2025-06-23 06:17:01.059Z264.621° W2025-06-23 06:19:01.059Z227.26° WSW18.691°2025-06-23 06:21:01.059Z193.136° SSW
|